Lid_Strength_Index
1 1 1 1 1 0 0 0 0 -0 -0 -0 -0 -0 -0 -0 -0 -0 -0 -0 0 0 -0 0 0 -1 0 0 -0 0 1 1 2 1 -1 -1 -1 -1 -2 -2 -2 -2 -2
1 1 1 1 1 1 1 0 0 0 -0 -0 -0 0 0 -0 -0 0 0 0 0 1 0 0 0 0 0 -0 0 0 0 -0 1 2 0 0 -0 -1 -1 -1 -1 -2 -2
1 1 1 1 1 1 1 0 0 0 0 0 0 0 0 0 0 0 0 0 0 0 0 0 0 0 1 0 0 0 0 0 1 1 2 -0 -0 -1 -0 -1 -1 -2 -1
1 2 2 2 1 1 1 1 0 0 0 0 0 0 0 0 0 0 0 0 0 0 -0 0 0 0 0 1 1 0 0 1 1 1 1 1 1 -0 -0 1 1 -0 -0
2 2 2 1 1 1 1 1 0 0 0 0 0 0 0 0 0 0 0 0 0 1 0 0 -0 -0 1 1 1 0 0 1 1 2 2 2 2 2 2 1 1 1 -0
2 2 1 1 1 1 1 1 1 1 1 0 1 1 1 1 3 3 1 1 0 1 1 0 -0 1 2 3 3 2 0 1 1 2 2 2 1 2 1 1 1 2 3
2 2 2 2 2 2 1 1 1 1 1 1 1 1 1 1 5 4 3 0 1 1 1 1 1 1 2 1 4 4 3 2 0 0 1 1 2 1 0 1 1 1 2
2 2 2 2 2 1 1 2 1 1 1 1 1 1 1 1 6 5 4 0 0 0 0 0 0 0 1 1 0 1 1 1 -0 -0 -0 -0 0 -1 -1 -1 -0 0 0
2 2 2 2 2 2 2 2 2 2 1 1 1 1 1 1 7 6 4 1 1 1 0 -0 0 0 3 5 1 1 1 1 2 3 2 2 3 2 0 -0 1 2 2
2 2 2 2 2 2 2 2 1 1 1 1 1 1 2 1 7 7 5 1 1 1 1 0 5 2 8 8 1 1 2 1 0 0 -0 2 2 0 2 -1 -0 2 2
1 1 1 1 2 1 2 1 1 1 1 2 2 1 1 1 1 8 8 1 1 2 2 1 1 7 10 10 7 0 1 0 1 0 0 0 -0 -0 -0 -1 -2 -0 1
1 2 2 2 2 2 2 2 2 2 2 2 2 2 1 1 5 9 9 6 3 1 2 1 1 10 11 11 7 5 7 3 0 1 1 1 1 1 0 -1 -2 -2 -2
2 2 2 2 2 1 2 2 3 2 3 3 3 3 2 2 1 9 11 9 7 1 1 3 8 12 11 9 8 7 6 0 1 1 2 1 0 -0 -1 -1 -2 -2 -2
2 2 2 2 2 2 2 2 2 3 3 3 3 3 3 2 2 6 7 6 7 5 7 8 8 8 7 4 5 4 0 0 1 1 1 1 0 -0 0 -0 0 -0 0
2 2 2 2 2 2 2 2 2 2 2 3 3 3 3 4 6 9 8 6 5 7 7 6 5 4 3 2 1 1 0 0 1 1 1 1 1 0 1 -0 0 0 1
3 2 2 2 2 2 3 4 13 13 12 12 11 4 4 10 13 13 13 11 10 7 4 4 3 2 2 2 2 2 1 1 1 1 1 1 1 1 1 0 0 1 2
3 2 2 3 2 3 4 3 5 11 16 14 14 13 12 12 13 13 12 12 10 8 3 3 3 2 2 2 2 2 1 1 0 1 1 1 1 1 1 1 1 2 3
2 7 3 3 2 3 3 4 6 7 8 9 14 12 15 14 14 14 11 9 8 5 2 3 2 2 2 2 2 1 1 1 1 1 1 1 1 1 1 2 2 3 3
2 2 2 2 4 4 3 3 4 6 7 8 12 15 16 17 16 14 12 3 3 3 2 2 2 2 2 1 1 1 1 1 1 1 1 1 1 1 1 2 3 5 5
2 4 3 2 3 5 5 5 5 5 6 8 8 9 12 11 9 6 2 2 2 2 2 2 1 1 2 2 2 1 1 1 1 1 1 1 1 2 2 3 3 3 3
2 2 3 2 2 2 3 4 3 5 5 4 7 8 11 4 5 3 3 3 2 2 1 1 1 1 2 2 2 2 2 1 2 1 1 2 2 3 2 3 3 3 4
2 2 2 2 2 2 3 3 3 3 3 3 5 7 11 3 3 3 2 1 1 1 1 1 1 1 1 2 3 3 2 2 1 1 1 2 2 3 3 3 3 4 4
2 2 2 2 2 3 2 2 3 3 3 4 4 4 2 2 2 2 2 1 1 1 1 1 1 1 2 2 2 1 1 1 1 1 2 2 3 3 3 3 4 4 4
2 2 2 2 2 2 2 3 3 6 4 4 4 3 2 3 3 3 2 1 1 1 1 1 1 2 2 2 1 0 0 0 1 1 1 2 3 4 3 3 4 5 5
2 2 2 2 2 2 2 3 3 3 4 4 5 4 4 2 2 2 1 1 1 1 1 1 2 2 2 1 0 1 5 9 3 6 2 2 3 3 4 4 4 5 5
2 3 4 3 2 2 2 2 2 3 4 4 4 4 4 4 3 2 2 1 1 2 2 1 2 1 1 1 1 6 13 13 7 10 3 3 4 4 4 5 5 5 5